TimeEDT,TemperatureF,Dew PointF,Humidity,Sea Level PressureIn,VisibilityMPH,Wind Direction,Wind SpeedMPH,Gust SpeedMPH,PrecipitationIn,Events,Conditions,WindDirDegrees,DateUTC
12:53 AM,60.1,53.1,78,29.77,10.0,NW,5.8,-,N/A,,Overcast,320,2013-09-14 04:53:00
1:53 AM,61.0,53.1,75,29.78,10.0,WNW,4.6,-,N/A,,Overcast,290,2013-09-14 05:53:00
2:53 AM,60.1,52.0,75,29.79,10.0,WNW,3.5,-,N/A,,Overcast,300,2013-09-14 06:53:00
3:53 AM,60.1,52.0,75,29.80,10.0,NW,5.8,-,N/A,,Overcast,320,2013-09-14 07:53:00
4:53 AM,57.9,51.1,78,29.80,10.0,NW,3.5,-,N/A,,Clear,310,2013-09-14 08:53:00
5:53 AM,57.9,51.1,78,29.83,10.0,WNW,6.9,-,N/A,,Overcast,300,2013-09-14 09:53:00
6:53 AM,57.0,51.1,81,29.84,10.0,WNW,4.6,-,N/A,,Mostly Cloudy,300,2013-09-14 10:53:00
7:53 AM,59.0,51.1,75,29.86,10.0,NW,10.4,-,N/A,,Mostly Cloudy,320,2013-09-14 11:53:00
8:53 AM,60.1,51.1,72,29.88,10.0,WNW,9.2,-,N/A,,Overcast,300,2013-09-14 12:53:00
9:53 AM,64.0,52.0,65,29.89,10.0,North,9.2,-,N/A,,Scattered Clouds,350,2013-09-14 13:53:00
10:53 AM,66.0,53.1,63,29.89,10.0,WNW,9.2,-,N/A,,Mostly Cloudy,290,2013-09-14 14:53:00
11:11 AM,66.2,51.8,60,29.90,10.0,NNW,6.9,16.1,N/A,,Mostly Cloudy,330,2013-09-14 15:11:00
11:53 AM,66.0,52.0,60,29.90,10.0,North,5.8,-,N/A,,Overcast,350,2013-09-14 15:53:00
12:02 PM,66.2,53.6,64,29.90,10.0,WNW,8.1,-,N/A,,Overcast,300,2013-09-14 16:02:00
12:53 PM,64.9,52.0,63,29.91,10.0,WNW,6.9,-,N/A,,Overcast,290,2013-09-14 16:53:00
1:53 PM,64.9,52.0,63,29.91,10.0,WNW,9.2,-,N/A,,Overcast,300,2013-09-14 17:53:00
2:53 PM,66.0,51.1,59,29.92,10.0,Calm,Calm,-,N/A,,Overcast,0,2013-09-14 18:53:00
3:53 PM,69.1,51.1,53,29.92,10.0,NNW,6.9,-,N/A,,Mostly Cloudy,330,2013-09-14 19:53:00
4:53 PM,68.0,52.0,56,29.94,10.0,WNW,5.8,-,N/A,,Mostly Cloudy,290,2013-09-14 20:53:00
5:53 PM,66.0,51.1,59,29.95,10.0,NW,9.2,-,N/A,,Clear,310,2013-09-14 21:53:00
6:53 PM,62.1,50.0,65,29.97,10.0,WNW,6.9,-,N/A,,Clear,300,2013-09-14 22:53:00
7:53 PM,60.1,50.0,69,30.00,10.0,NNW,3.5,-,N/A,,Clear,340,2013-09-14 23:53:00
8:53 PM,54.0,48.9,83,30.03,10.0,Calm,Calm,-,N/A,,Clear,0,2013-09-15 00:53:00
9:53 PM,52.0,48.9,89,30.04,10.0,Calm,Calm,-,N/A,,Clear,0,2013-09-15 01:53:00
10:53 PM,50.0,48.0,93,30.05,10.0,Calm,Calm,-,N/A,,Clear,0,2013-09-15 02:53:00
11:31 PM,46.4,46.4,100,30.06,1.8,Calm,Calm,-,N/A,,Clear,0,2013-09-15 03:31:00
11:34 PM,48.2,46.4,93,30.06,1.0,Calm,Calm,-,N/A,,Mist,0,2013-09-15 03:34:00
11:45 PM,48.2,46.4,93,30.06,2.0,Calm,Calm,-,N/A,,Partly Cloudy,0,2013-09-15 03:45:00
11:53 PM,48.0,46.0,93,30.06,10.0,Calm,Calm,-,N/A,,Partly Cloudy,0,2013-09-15 03:53:00